Simultaneous Nadir Overpasses (SNOs) Predictions

Prediction of SNOs between METOP-B and NOAA-19 Satellite Orbit:

Table of predicted SNOs for the next 14.0 days since TLE Epoch: 11/4/2022
Index Date (METOP-B) Time (METOP-B) Lat,Lon (METOP-B) SZA (METOP-B ) Date (NOAA-19) Time (NOAA-19) Lat,Lon (NOAA-19) SZA (NOAA-19 ) Distance(km) Time Diff (sec)
1 11/08/2022 08:46:41 80.90, 83.02 99.40 11/08/2022 08:45:26 80.90, 83.11 99.38 1.62 75
2 11/08/2022 09:37:22 -80.91,-109.56 80.58 11/08/2022 09:36:21 -80.90,-109.46 80.60 1.72 61
3 11/08/2022 10:28:02 80.91, 57.89 99.45 11/08/2022 10:27:25 80.90, 57.85 99.42 1.18 37
4 11/08/2022 11:18:44 -80.90,-135.05 80.58 11/08/2022 11:18:21 -80.90,-135.09 80.59 0.98 23
5 11/08/2022 12:09:24 80.90, 32.40 99.45 11/08/2022 12:09:25 80.90, 32.22 99.43 3.18 1
6 11/08/2022 13:00:05 -80.91,-160.18 80.53 11/08/2022 13:00:20 -80.90,-160.34 80.55 3.00 15
7 11/08/2022 13:50:46 80.90, 6.92 99.45 11/08/2022 13:51:24 80.90, 6.97 99.47 1.07 38
8 11/08/2022 14:41:27 -80.90, 174.34 80.53 11/08/2022 14:42:19 -80.90, 174.41 80.51 1.21 52



Historial Predications of SNOs between METOP-B and NOAA-19
